This demonstration page uses our WeatherBlox Daily Observations layout. Learn more.

Hourly Observations for September 1, 2016

Temp ( °F °C ) Dew Point ( °F °C ) Humidity (%) Winds ( mph kmh ) Pressure ( in mb ) Visibility ( mi km ) Precip ( " mm )
12:15 am 00:15 Clear 61 16.1 58 14.5 90 90 Calm 30.18 1022 10 16.0934 N/A
12:35 am 00:35 Clear 60 15.6 57 14.1 91 91 Calm 30.18 1022 10 16.0934 N/A
12:55 am 00:55 Clear 59 15 57 13.7 92 92 Calm 30.21 1023 10 16.0934 N/A
1:15 am 01:15 Clear 58 14.6 56 13.4 93 93 Calm 30.21 1023 10 16.0934 N/A
1:35 am 01:35 Clear 58 14.3 56 13.3 94 94 Calm 30.21 1023 10 16.0934 N/A
1:55 am 01:55 Clear 57 13.8 55 12.6 93 93 Calm 30.21 1023 10 16.0934 N/A
2:15 am 02:15 Clear 57 13.7 55 12.7 94 94 Calm 30.21 1023 10 16.0934 N/A
2:35 am 02:35 Clear 56 13.5 55 12.6 94 94 Calm 30.21 1023 7 11.26538 N/A
2:55 am 02:55 Clear 56 13.3 55 12.5 95 95 Calm 30.21 1023 7 11.26538 N/A
3:15 am 03:15 Clear 55 13 54 12 94 94 Calm 30.21 1023 10 16.0934 N/A
3:35 am 03:35 Clear 55 12.7 54 12 96 96 Calm 30.21 1023 7 11.26538 N/A
3:55 am 03:55 Clear 55 12.7 54 12 96 96 Calm 30.21 1023 7 11.26538 N/A
4:15 am 04:15 Clear 55 12.7 54 12 96 96 Calm 30.21 1023 10 16.0934 N/A
4:35 am 04:35 Clear 55 12.5 53 11.6 94 94 Calm 30.21 1023 10 16.0934 N/A
4:55 am 04:55 Clear 54 12.3 53 11.5 95 95 NNE 3 6 30.21 1023 7 11.26538 N/A
5:15 am 05:15 Clear 53 11.5 51 10.6 94 94 Calm 30.24 1024 7 11.26538 N/A
5:35 am 05:35 Clear 53 11.7 52 10.9 95 95 Calm 30.24 1024 10 16.0934 N/A
5:55 am 05:55 Clear 53 11.8 52 11 95 95 Calm 30.24 1024 10 16.0934 N/A
6:15 am 06:15 Clear 53 11.7 52 10.9 95 95 Calm 30.24 1024 7 11.26538 N/A
6:35 am 06:35 Clear 52 11.2 51 10.3 94 94 Calm 30.24 1024 10 16.0934 N/A
6:55 am 06:55 Clear 52 11.3 51 10.5 95 95 Calm 30.24 1024 7 11.26538 N/A
7:15 am 07:15 Mostly Cloudy with Mist and Fog 52 11.3 51 10.5 95 95 Calm 30.27 1025 1 1.60934 N/A
7:35 am 07:35 Mostly Cloudy with Fog 52 11 50 10.2 95 95 Calm 30.27 1025 0.25 0.402335 N/A
7:55 am 07:55 Mostly Cloudy with Mist and Fog 53 11.5 51 10.7 95 95 Calm 30.27 1025 1.5 2.41401 N/A
8:15 am 08:15 Mostly Cloudy with Fog 54 12.3 53 11.6 96 96 Calm 30.24 1024 0.25 0.402335 N/A
8:35 am 08:35 Mostly Cloudy with Fog 56 13.6 55 13 96 96 Calm 30.24 1024 0.5 0.80467 N/A
8:55 am 08:55 Mostly Cloudy with Fog 58 14.7 57 14 96 96 Calm 30.24 1024 0.5 0.80467 N/A
9:15 am 09:15 Sunny 62 16.5 60 15.8 96 96 S 5 7 30.21 1023 10 16.0934 N/A
9:35 am 09:35 Sunny 63 17.3 60 15.4 89 89 SE 5 7 30.21 1023 7 11.26538 N/A
9:55 am 09:55 Hazy 66 18.9 60 15.7 82 82 SSE 5 7 30.18 1022 5 8.0467 N/A
10:15 am 10:15 Hazy 68 20.1 60 15.6 75 75 SE 7 11 30.15 1021 4 6.43736 N/A
10:35 am 10:35 Mostly Cloudy with Haze 70 21 59 15.2 70 70 SSE 8 13 30.18 1022 1.5 2.41401 N/A
10:55 am 10:55 Mostly Cloudy with Haze 71 21.6 59 14.8 65 65 SSE 8 13 30.18 1022 1.75 2.816345 N/A
11:15 am 11:15 Hazy 72 22.2 58 14.3 61 61 SSE 9 15 30.18 1022 4 6.43736 N/A
11:35 am 11:35 Hazy 73 22.7 57 14.1 58 58 SSE 10 17 30.12 1020 2.5 4.02335 N/A
11:55 am 11:55 Sunny 73 22.7 57 13.7 57 57 ESE 10 17 30.12 1020 10 16.0934 N/A
12:15 pm 12:15 Sunny 74 23.1 56 13.6 55 55 SE 8 13 30.12 1020 10 16.0934 N/A
12:35 pm 12:35 Sunny 75 23.7 55 12.7 50 50 ESE 9 15 30.12 1020 10 16.0934 N/A
12:55 pm 12:55 Sunny 76 24.4 55 12.6 48 48 SE 7 11 30.12 1020 10 16.0934 N/A
1:15 pm 13:15 Sunny 75 24.1 55 13 50 50 SE 8 13 30.09 1019 10 16.0934 N/A
1:35 pm 13:35 Sunny 76 24.7 53 11.9 45 45 ESE 10 17 30.09 1019 10 16.0934 N/A
1:55 pm 13:55 Sunny 77 24.8 55 12.6 47 47 SE 12 19 30.09 1019 10 16.0934 N/A
2:15 pm 14:15 Sunny 78 25.3 55 12.5 45 45 ESE 13 20 30.06 1018 10 16.0934 N/A
2:35 pm 14:35 Sunny 78 25.3 53 11.9 43 43 ESE 12 19 30.06 1018 10 16.0934 N/A
2:55 pm 14:55 Sunny 78 25.6 53 11.8 42 42 SE 10 17 30.06 1018 10 16.0934 N/A
3:15 pm 15:15 Sunny 79 26.1 53 11.9 41 41 SSE 12 19 30.06 1018 10 16.0934 N/A
3:35 pm 15:35 Sunny 79 26.3 54 12.2 42 42 SSE 12 19 30.03 1017 10 16.0934 N/A
3:55 pm 15:55 Sunny 80 26.4 53 11.7 40 40 SE 10 17 30.03 1017 10 16.0934 N/A
4:15 pm 16:15 Sunny 79 26.3 54 12 41 41 SE 15 24 30.03 1017 10 16.0934 N/A
4:35 pm 16:35 Sunny 80 26.5 53 11.7 40 40 SE 12 19 30.03 1017 10 16.0934 N/A
4:55 pm 16:55 Sunny 80 26.4 53 11.9 41 41 SE 9 15 30.03 1017 10 16.0934 N/A
5:15 pm 17:15 Sunny 79 26.3 53 11.7 40 40 SE 14 22 30.03 1017 10 16.0934 N/A
5:35 pm 17:35 Sunny 79 26.1 53 11.6 40 40 SE 14 22 30.03 1017 10 16.0934 N/A
5:55 pm 17:55 Sunny 79 26 53 11.4 40 40 ESE 14 22 30 1016 10 16.0934 N/A
6:15 pm 18:15 Sunny 78 25.6 53 11.4 41 41 SE 14 22 30 1016 10 16.0934 N/A
6:35 pm 18:35 Sunny 77 25.2 53 11.9 44 44 SE 14 22 30 1016 10 16.0934 N/A
6:55 pm 18:55 Sunny 78 25.5 61 16.1 56 56 ESE 7 11 30.03 1017 10 16.0934 N/A
7:15 pm 19:15 Sunny 75 24 55 12.9 50 50 ESE 12 19 30.03 1017 10 16.0934 N/A
7:35 pm 19:35 Sunny 74 23.3 56 13.1 53 53 ESE 13 20 30.03 1017 10 16.0934 N/A
7:55 pm 19:55 Sunny 73 22.5 57 13.7 58 58 ESE 10 17 30.03 1017 10 16.0934 N/A
8:15 pm 20:15 Clear 71 21.7 57 14 62 62 ESE 10 17 30.03 1017 10 16.0934 N/A
8:35 pm 20:35 Clear 70 21 57 13.8 64 64 SE 9 15 30.09 1019 10 16.0934 N/A
8:55 pm 20:55 Clear 68 20.2 57 14 68 68 SE 9 15 30.09 1019 10 16.0934 N/A
9:15 pm 21:15 Clear 67 19.5 57 14 71 71 SE 10 17 30.09 1019 10 16.0934 N/A
9:35 pm 21:35 Clear 66 19.1 58 14.4 74 74 SE 10 17 30.09 1019 10 16.0934 N/A
9:55 pm 21:55 Clear 66 18.8 58 14.3 75 75 SE 9 15 30.09 1019 10 16.0934 N/A
10:15 pm 22:15 Clear 66 18.8 58 14.3 75 75 SE 12 19 30.09 1019 10 16.0934 N/A
10:35 pm 22:35 Clear 65 18.1 57 14 77 77 SSE 8 13 30.09 1019 10 16.0934 N/A
10:55 pm 22:55 Clear 64 17.9 57 13.8 77 77 SSE 9 15 30.12 1020 10 16.0934 N/A
11:15 pm 23:15 Clear 63 17.3 57 13.7 80 80 SSE 8 13 30.12 1020 10 16.0934 N/A
11:35 pm 23:35 Clear 63 17.3 57 13.7 80 80 SSE 8 13 30.12 1020 10 16.0934 N/A
11:55 pm 23:55 Clear 63 17 56 13.6 81 81 SSE 8 13 30.12 1020 10 16.0934 N/A

Powered by AerisWeather